User: anonymous   Login
Location: Pabrico
(37.5827°N, 122.0063°W)
Time: 16:21:58
(UTC+00:00)
Language:

SL-16 R/B - Orbit

View from above orbital plane
View from above orbital plane
View from above satellite
View from above satellite

Ground track
Ground track

The orbit data is extracted from the following two-line orbital elements,

1 27006U 01056F   24171.45065628 -.00000022  00000-0  26942-4 0  9990
2 27006  99.6860 318.6315 0014854 159.1918 269.9964 13.71032409127182
Epoch (UTC): 19 June 2024 10:48:56
Eccentricity: 0.0014854
inclination: 99.6860°
perigee height: 985 km
apogee height: 1007 km
right ascension of ascending node: 318.6315°
argument of perigee: 159.1918°
revolutions per day: 13.71032409
mean anomaly at epoch: 269.9964°
orbit number at epoch: 12718

The dashed part of the orbit path shows where the satellite is in the earth's shadow,  

DLR